This demonstration page uses our WeatherBlox Daily Observations layout. Learn more.

41.55636, -103.73856

Hourly Observations for January 11, 2019

Temp ( °F °C ) Dew Point ( °F °C ) Humidity (%) Winds ( mph kmh ) Pressure ( in mb ) Visibility ( mi km ) Precip ( " mm )
12:53 am 00:53 Clear 27 -2.8 23 -5 85 85 NW 8 13 30.03 1017 10 16.09344 0 0
1:53 am 01:53 Clear 25 -3.9 22 -5.6 88 88 NW 8 13 30.06 1018 10 16.09344 0 0
2:53 am 02:53 Clear 29 -1.7 24 -4.4 82 82 NNW 8 13 30.06 1018 10 16.09344 0 0
3:53 am 03:53 Clear 28 -2.2 23 -5 81 81 NW 9 15 30.06 1018 10 16.09344 0 0
4:53 am 04:53 Clear 28 -2.2 24 -4.4 85 85 WNW 8 13 30.09 1019 10 16.09344 0 0
5:53 am 05:53 Clear 27 -2.8 24 -4.4 89 89 NW 9 15 30.12 1020 10 16.09344 0 0
6:53 am 06:53 Mostly Cloudy 27 -2.8 24 -4.4 89 89 NW 12 19 30.12 1020 10 16.09344 0 0
7:53 am 07:53 Cloudy 29 -1.7 25 -3.9 85 85 NW 10 17 30.12 1020 10 16.09344 0 0
8:53 am 08:53 Cloudy 34 1.1 28 -2.2 79 79 WNW 9 15 30.15 1021 10 16.09344 0 0
9:53 am 09:53 Cloudy 40 4.4 31 -0.6 70 70 W 9 15 30.18 1022 10 16.09344 0 0
10:53 am 10:53 Cloudy 43 6.1 33 0.6 68 68 NW 9 15 30.15 1021 10 16.09344 0 0
11:53 am 11:53 Cloudy 44 6.7 36 2.2 73 73 N 17 28 30.12 1020 10 16.09344 0 0
12:53 pm 12:53 Cloudy 45 7.2 37 2.8 74 74 N 14 22 30.12 1020 10 16.09344 0 0
1:53 pm 13:53 Cloudy 44 6.7 38 3.3 79 79 N 14 22 30.12 1020 10 16.09344 0 0
2:53 pm 14:53 Cloudy 42 5.6 38 3.3 85 85 N 12 19 30.15 1021 10 16.09344 0 0
3:53 pm 15:53 Cloudy with Light Rain 39 3.9 38 3.3 96 96 N 12 19 30.18 1022 10 16.09344 0.01 0.254
4:07 pm 16:07 Cloudy with Light Rain 39 3.9 38 3.3 96 96 N 9 15 30.18 1022 10 16.09344 0.001 0.001
4:53 pm 16:53 Cloudy with Light Rain 37 2.8 37 2.8 100 100 N 8 13 30.21 1023 10 16.09344 0.02 0.508
5:08 pm 17:08 Cloudy with Light Rain 37 3 37 3 100 100 N 7 11 30.21 1023 10 16.09344 0 0
5:53 pm 17:53 Cloudy 36 2.2 36 2.2 100 100 NW 5 7 30.21 1023 10 16.09344 0.01 0.254
6:53 pm 18:53 Cloudy 36 2.2 36 2.2 100 100 WNW 6 9 30.21 1023 10 16.09344 0.001 0.001
7:53 pm 19:53 Cloudy 36 2.2 36 2.2 100 100 WNW 6 9 30.21 1023 10 16.09344 0 0
8:53 pm 20:53 Cloudy 36 2.2 36 2.2 100 100 WNW 6 9 30.21 1023 10 16.09344 0 0
9:53 pm 21:53 Cloudy 35 1.7 35 1.7 100 100 WNW 8 13 30.21 1023 10 16.09344 0 0
10:53 pm 22:53 Cloudy 34 1.1 34 1.1 100 100 W 8 13 30.18 1022 10 16.09344 0 0
11:53 pm 23:53 Cloudy 34 1.1 34 1.1 100 100 WNW 8 13 30.18 1022 10 16.09344 0 0

Powered by AerisWeather